Weather in Smarhon

Belarus     54˚28′53″N   26˚24′09″E
temp.,
°C
wind,
m/s
gust,
m/s
humid.,
%
clouds,
%
prec.,
mm/h
press.,
hPa
HPBL,
m
3 december, thu
thu300:00−3˚se269790 0.3 1026267
03:00−5˚se269685 0.3 1025191
06:00−4˚se379580 0.1 1024303
09:00−4˚sse389581 0.3 1023367
12:00−2˚sse598987 0.1 1023661
15:00−1˚sse598891 0.3 1022823
18:00−1˚se5119199 0.1 1021730
21:00−1˚sse5118899 0.1 1020849
4 december, fri
fri400:00sse6128999 0.0 1019889
03:00+1˚sse61387100 0.0 1019867
06:00+1˚sse61388100 0.0 1017855
09:00+2˚sse61490100 0.0 1017832
12:00+2˚sse81494100 0.0 1017859
15:00+2˚sse61491100 0.0 1017827
18:00+2˚sse71489100 0.0 1017849
21:00+3˚sse71589100 0.0 1017845
5 december, sat
sat500:00+4˚sse71690100 0.0 1017800
03:00+4˚sse81689100 0.0 1018686
06:00+4˚sse6159190 0.0 1018628
09:00+3˚sse6149193 0.0 1020555
12:00+4˚sse61491100 0.0 1021618
15:00+4˚sse71489100 0.0 1021660
18:00+4˚sse7148882 0.0 1022654
21:00+4˚sse6148792 0.0 1023719
6 december, sun
sun600:00+4˚sse6138683 0.0 1024783
03:00+3˚sse7148492 0.0 1025810
06:00+2˚sse7148599 0.0 1025737
09:00+1˚se6148785 0.0 1026573
12:00+1˚se7148032 0.0 1027640
15:00+2˚se7157316 0.0 1026696
18:00se615730 0.0 1027596
21:00−1˚se616570 0.0 1027553
7 december, mon
mon700:00−2˚se617550 0.0 1027567
03:00−2˚se716550 0.0 1027583
06:00−2˚se716610 0.0 1026591
09:00−2˚se717570 0.0 1026682
12:00−1˚se816520 0.0 1026814
15:00−1˚se714510 0.0 1025847
18:00−2˚se7155458 0.0 1025767
21:00−2˚se7155567 0.0 1025708